STARLINK-1807, 46706

Orbit data source: Space-Track

STARLINK-1807, 46706 is a payload satellite owned by SpaceX/Seattle (US) in LEO that was launched on Sun, 18 Oct 2020 UTC via an FALCON 9 launch vehicle from the Air Force Eastern Test Range (AFETR). Payloads include a variety of satellites, spacecraft, and rockets equipped with specific instruments for various scientific and technological missions. These include communications satellites like Starlink; space stations such as the ISS; scientific satellites like the Hubble; Earth observation satellites from companies like Planet Labs, Umbra, and HawkEye 360; GPS; miniature CubeSats for education and research; and military/defense satellites.

Loading next visibility...
STARLINK-1807 details
Identifier
46706, 2020-073AN
Orbit
LEO
Last TLE update10 hours ago
Origin
Flag of USSpaceX/Seattle (US)
ManufacturerSpaceX/Seattle
MissionOperational Commercial Communications
Bus & MotorSTARLINK, Unknown motor
Mass260 kg wet, ~248 kg dry
Launch date (UTC)
2020-10-18 (4 years ago)
Launch vehicle
FALCON 9
Launch site
Air Force Eastern Test Range (AFETR)
Object type
Payload
Rocket body
Debris
Shape & HBRBox + 1 Pan, 8.86 m
Radar Cross Section13.562 m², Large (>1 m²)

Expand to show TLE details & history

TLE from 10 hours ago
0 STARLINK-1807
1 46706U 20073AN  25024.14597799  .00018024  00000-0  12255-2 0  9991
2 46706  53.0542 280.1326 0000935  64.9817 295.1269 15.06409771235888
Epoch: 2025-01-24T03:30Z
Definitive object data (Epoch: 2025-01-24T03:30:12.498Z)
Latitude-0.00001°
Longitude103.86717°
Altitude547.786 km
Speed7.589 km/s
True Right ascension18h 40m 31s
True Declination0° 00' 00"
Sunlit
Object was in daylight at TLE epoch
Visualization TLE readout
Latitude38.00017°
Longitude-113.78604°
Altitude550.012 km
Speed7.592 km/s
Apparent Right ascension03h 34m 00s
Apparent Declination0° 58' 15"
Sunlit
Object is in full shadow
Visualization observer readout
Local Sidereal Time14:53:53
Azimuth344.89° N
Elevation-48.098°
Doppler factor1
Orbital elements
Apogee altitude548.1 km
Perigee altitude546.805 km
Semi-major axis6,925.589 km
Eccentricity0.0000935
Inclination53.0542°
RAAN280.1326°
Arg. of periapsis64.9817°
True anomaly295.1172°
Mean anomaly295.1269°
Eccentric anomaly295.12205°
Mean motion3.76581 °/min
BSTAR0.0012255
Orbital period95.6 mins
Loading maneuver chart data...
Loading historical data...
Loading historical data...
Loading historical data...
Loading historical data...
Loading historical data...
Loading historical data...
Loading historical data...

STARLINK-1807 Visibility forecast

Observer location: undefined°, undefined

Span
Click to sort rows by Start time (UTC) header in descending order
Start Az.
Max El. time (UTC)
Max El. Az.
Max El.
End time (UTC)
End Az.
7 mins2025-01-24 19:35:51.201Z223.9° SW2025-01-24 19:39:51.201Z78.785° E42.877°2025-01-24 19:42:51.201Z53.076° ENE
4 mins2025-01-24 21:17:51.201Z306.214° NW2025-01-24 21:18:51.201Z326.113° NNW20.719°2025-01-24 21:21:51.201Z22.512° NE
4 mins2025-01-25 00:39:51.201Z359.315° N2025-01-25 00:40:51.201Z18.843° NNE18.503°2025-01-25 00:43:51.201Z66.937° ENE
6 mins2025-01-25 02:18:51.201Z316.193° NNW2025-01-25 02:20:51.201Z16.791° NNE44.145°2025-01-25 02:24:51.201Z125.374° SE
|